Regional Weather Roundup
Issued by NWS Charleston, SC

Home | Current Version | Previous Version | Text Only | Print | Product List | Glossary On
Versions: 1 2 3 4 5 6 7 8 9 10 11 12 13 14 15 16 17 18 19 20 21 22 23 24 25 26 27 28 29 30 31 32 33 34 35 36 37 38 39 40 41 42 43 44 45 46 47 48 49 50
000
ASUS42 KCHS 290825
RWRCHS

REGIONAL WEATHER ROUNDUP
NATIONAL WEATHER SERVICE CHARLESTON SC
300 AM EST SAT NOV 29 2014

NOTE: "FAIR" INDICATES FEW OR NO CLOUDS BELOW 12,000 FEET WITH NO
SIGNIFICANT WEATHER AND/OR OBSTRUCTIONS TO VISIBILITY.

NOT ALL STATIONS ARE QUALITY CONTROLLED BY THE NATIONAL
WEATHER SERVICE. USE DATA WITH CAUTION...ESPECIALLY
DEWPOINT OBSERVATIONS.

SCZ027-030-031-034>040-042>050-290900-
...SOUTHEAST SOUTH CAROLINA...

CITY           SKY/WX    TMP DP  RH WIND       PRES   REMARKS
N CHARLESTON   CLEAR     32  30  92 CALM      30.33F
WATERFRONT PRK   N/A     43 N/A N/A N3          N/A
MOUNT PLEASANT FAIR      32  32 100 CALM      30.33F
JOHNS ISLAND   SUNNY     34  34 100 CALM      30.33F
PINOPOLIS        N/A     39  30  70 S3        30.24S
MONCKS CORNER  FAIR      32  32 100 CALM      30.33S FOG
SUMMERVILLE    FAIR      32  32 100 CALM      30.34S
BEAUFORT MCAS  CLEAR     35  32  88 CALM      30.33S
BEAUFORT ARPT  FAIR      36  36 100 CALM      30.32S FOG
HILTON HEAD IS CLEAR     34  32  93 CALM      30.33F
WALTERBORO     SUNNY     32 N/A N/A CALM      30.34S
ALLENDALE      FAIR      30  30 100 CALM      30.33R FOG

...SOUTHERN MIDLANDS AND PEE DEE...

CITY           SKY/WX    TMP DP  RH WIND       PRES   REMARKS
GEORGETOWN     NOT AVBL
KINGSTREE      NOT AVBL
ORANGEBURG     CLEAR     30  28  92 CALM      30.33R
BARNWELL         N/A     30  30 100 CALM      30.33S
AIKEN          FAIR      30  30 100 CALM      30.34R
MANNING        NOT AVBL
COLUMBIA       CLEAR     31  27  85 CALM      30.32R
SUMTER         CLEAR     31  28  90 CALM      30.31R
FLORENCE       FAIR      31  27  85 CALM      30.32S
MYRTLE BEACH   CLEAR     32  28  86 W3        30.33S
N MYRTLE BEACH FAIR      30  28  92 CALM      30.33S

$$

GAZ063-065-086>088-099>101-113>116-118-119-134>141-150-290900-
...SOUTHEAST GEORGIA...

CITY           SKY/WX    TMP DP  RH WIND       PRES   REMARKS
SAVANNAH ARPT  CLEAR     34  30  85 CALM      30.33S
HUNTER AAF     CLEAR     32  31  96 W2        30.31R
FORT STEWART   FAIR      31  29  93 CALM      30.31S
STATESBORO     NOT AVBL
SYLVANIA       SUNNY     33  33  99 CALM      30.33R
CLAXTON        NOT AVBL

...CSRA...CENTRAL AND FAR SOUTHEAST GEORGIA...

CITY           SKY/WX    TMP DP  RH WIND       PRES   REMARKS
THOMSON        CLEAR     31  31 100 CALM      30.34S
AUGUSTA-BUSH   CLEAR     27  25  92 CALM      30.33R
AUGUSTA-DANIEL CLEAR     37  29  72 CALM      30.31S
SWAINSBORO     FAIR      34  34 100 CALM      30.32S
VIDALIA        CLEAR     34  34 100 CALM      30.32R
HAZLEHURST     FAIR      39  37  91 S3        30.30S
ALMA           PTCLDY    31  30  96 CALM      30.31S FOG
WAYCROSS       CLEAR     36  35  96 CALM      30.31F
JESUP          FAIR      32  32 100 CALM      30.32S
BAXLEY         FAIR      34  34 100 CALM      30.31S FOG
BRUNSWICK      CLEAR     34  32  93 CALM      30.33S
SAINT SIMONS   CLEAR     37  34  89 CALM      30.32S

$$

SCZ027-028-034-036>038-045-046-048>050-GAZ119-141-290900-
...LAKE AND SUPPLEMENTAL COASTAL OBSERVATIONS...

STATION/POSITION TIME  TEMP    WIND        PRES    WAVE   SWELL
                       AIR SEA DIR/SP/G            HT/PER HT/PER/DIR
                 (UTC) (F)     (DEG/KT/KT) (MB)    (FT/S) (FT/S/D)
UPR LAKE MARION  NOT AVBL
WINYAH BAY       0800   33     300/  3     1027.0S
LAKE MURRAY      0700   44     230/  5/  8 1025.7R
ACE BASIN NERRS  0800   35        CALM     1026.0S
FORT PULASKI     0800   46     340/  3/  4 1026.9R
SAPELO ISLAND    0800   37        CALM     1026.0S

$$

ANZ835-935-AMZ111-154-330-350-352-354-370-450-454-472-290900-
...C-MAN AND BUOY OBSERVATIONS...

STATION/POSITION TIME  TEMP    WIND        PRES    WAVE   SWELL
                       AIR SEA DIR/SP/G            HT/PER HT/PER/DIR
                 (UTC) (F)     (DEG/KT/KT) (MB)    (FT/S) (FT/S/D)
BUOY 41004       0800   52 72  360/  4/  8 1026.3R   3/ 9   3/ 9
BUOY 41008       0800   51 62   CALM  /  4 1026.4R   3/10   3/100/10
FOLLY BEACH CMAN 0800   44     330/  3/  3 1027.4S
CAPERS NEARSHORE 0700   46      CALM  /  2   N/A
FRIPP NEARSHORE  NOT AVBL


STATION/POSITION TIME  TEMP    WIND        PRES    WAVE   SWELL
                       AIR SEA DIR/SP/G            HT/PER HT/PER/DIR
                 (UTC) (F)     (DEG/KT/KT) (MB)    (FT/S) (FT/S/D)
5E ST. MARYS GA  0800      60                N/A     3/10
FRYING PAN BUOY  0800   48 67  340/  6/ 10 1027.3R   3/ 9   2/ 90/ 9
BUOY 41025       0800   43     330/  8/ 16 1027.3R   5/ 9   5/ 50/ 9
CAPE LOOKOUT NC  0800   43     350/  4/  4 1026.9R
BUOY 41002       0704   59 72  350/  8/ 14 1024.6F   7/ 8   7/ 10/ 8
BUOY 41010       0800   64 78   50/ 12/ 16 1023.5S   5/ 9   5/ 60/ 9
ST AUGUSTINE FL  0800   45     310/  8/  9 1025.9F


$$


USA.gov is the U.S. government's official web portal to all federal, state and local government web resources and services.